COSMOS 1275 DEB, 17632

Orbit data source: Space-Track

COSMOS 1275 DEB, 17632 is space debris in LEO originally from a launch on Thu, 04 Jun 1981 UTC launched from the Plesetsk Missile And Space Complex (PKMTR). Debris objects in space refer to the collection of defunct objects orbiting the Earth. Examples of debris include non-operational satellites, rocket bodies, and fragments generated from explosions, collisions, or faulty payload assembly.

Loading next visibility...
Identifier
17632, 1981-053LB
Orbit
LEO
Country
Flag of CISCIS
Related business
Manufacturer
Unknown
Mission
Spacecraft
Bus & Motor
Unknown
Mass
Unknown
Launch date (UTC)
1981-06-04 (44 years ago)
Launch vehicle
Unknown
Launch site
Plesetsk Missile And Space Complex (PKMTR)
Object type
Payload
Rocket body
Debris
Shape & HBR
Unknown shape, 0.1 m
Radar Cross Section
Small (<0.1 m²)

Expand to show TLE details & history
Last TLE update: 1 day ago

TLE from 1 day ago
0 COSMOS 1275 DEB
1 17632U 81053LB  25286.28764039  .00001245  00000-0  14738-2 0  9995
2 17632  83.0873  21.7494 0145533 189.3601 228.2171 13.62608599  2055
Epoch: 2025-10-13T06:54Z
TLE epoch observation values (Epoch: 2025-10-13T06:54:12.129Z)
Latitude
55.8228°
Longitude
-93.66152°
Altitude
1,108.186 km
Speed
7.268 km/s
True Right ascension
02h 07m 55s
True Declination
55° 40' 13"
Sunlit
Object was in full shadow at epoch
Visualization orbit readout
Latitude
Unknown
Longitude
Unknown
Altitude
Unknown
Speed
Unknown
Apparent Right ascension
Unknown
Apparent Declination
Unknown
Sunlit
N/A
Visualization observer readout
Local Sidereal Time
02:35:19
Azimuth
Unknown
Elevation
Unknown
Doppler factor
Unknown
Orbital elements
Apogee altitude
1,131.103 km
Perigee altitude
915.67 km
Semi-major axis
7,401.524 km
Eccentricity
0.01455
Inclination
83.0873°
RAAN
21.7494°
Arg. of periapsis
189.3601°
True anomaly
226.98854°
Mean anomaly
228.2171°
Eccentric anomaly
227.60133°
Mean motion
3.40849 °/min
Orbital period
105.62 mins
BSTAR
0.0014738
Loading maneuver chart data...
Computing Atmospheric mass density...
Loading historical data...
Loading historical data...
Loading historical data...
Loading historical data...
Loading historical data...
Loading historical data...
Loading historical data...

Documentation

Showing up to 5 results
|